Location: Cluny
(50.9333°N, 112.8167°W)
Time: 10:12:18
(UTC-07:00)

Amateur Radio Satellites - All Passes

Search period start: 13 February 2016 09:42
Search period end: 14 February 2016 09:42
Location: Cluny, 50.9333°N, 112.8167°W

Satellite Date Start Highest point End Downlink Frequencies (MHz)
Time Altitude Azimuth
RS-15 13 Feb 09:43:29 09:50:48 20° 96° (E) 09:58:20 29.354- 29.394
CUBEBUG 2 13 Feb 09:43:52 09:48:04 68° 103° (ESE) 09:52:19 437.445
Cosmos 2499 13 Feb 09:57:44 10:06:31 74° 95° (E) 10:15:20 435.465 / 435.565
CANX-2 13 Feb 09:58:57 10:02:39 28° 295° (WNW) 10:06:20 2200.000
AO-85 13 Feb 09:58:59 10:04:08 45° 121° (ESE) 10:09:21 145.980
DELFI C3 13 Feb 09:59:35 10:03:23 37° 97° (E) 10:07:10 145.870
CINEMA 3 13 Feb 10:03:38 10:07:21 32° 294° (WNW) 10:11:05 145.822/145.860
SO-50 13 Feb 10:03:43 10:07:15 19° 15° (NNE) 10:10:45 436.795
HUMSAT D 13 Feb 10:07:21 10:10:38 22° 92° (E) 10:13:55 437.325/437.525
POPSAT HIP 1 13 Feb 10:08:35 10:12:21 32° 66° (ENE) 10:16:07 437.405
DUCHIFAT 1 13 Feb 10:10:28 10:14:12 31° 65° (ENE) 10:17:56 145.980
NANOSAT C BR1 13 Feb 10:10:46 10:14:33 33° 66° (ENE) 10:18:20 145.865
UNISAT 6 13 Feb 10:12:25 10:16:41 68° 258° (WSW) 10:20:57 437.425
QB50P1 13 Feb 10:20:35 10:24:34 42° 68° (ENE) 10:28:33 145.935-145.965
ZACube-1 13 Feb 10:21:35 10:25:50 86° 108° (ESE) 10:30:09 437.345
DANDE 13 Feb 10:22:48 10:24:37 11° 35° (NE) 10:26:21 436.750
COMPASS 1 13 Feb 10:27:03 10:30:40 28° 295° (WNW) 10:34:16 437.405
FUNcube-1 13 Feb 10:28:36 10:32:50 85° 284° (WNW) 10:37:08 145.935
JAS-2 13 Feb 10:35:35 10:37:40 12° 43° (NE) 10:39:42 435.910
HO-68 13 Feb 10:38:08 10:44:38 38° 303° (WNW) 10:51:06 435.675
AIST 1 13 Feb 10:42:23 10:46:46 74° 98° (E) 10:51:12
VELOX 1 13 Feb 10:47:41 10:49:32 12° 87° (E) 10:51:24 145.980
SEEDS 13 Feb 10:49:10 10:51:41 16° 302° (WNW) 10:54:12 437.485
CUTE 1.7 + AOD 2 13 Feb 10:50:16 10:52:11 13° 304° (NW) 10:54:04 437.475
AAUSAT CUBESAT 2 13 Feb 10:52:18 10:55:25 20° 299° (WNW) 10:58:30 437.432
PCSat 13 Feb 10:52:36 10:57:59 67° 121° (ESE) 11:03:24 145.827
BUGSAT 1 13 Feb 10:54:57 10:58:58 47° 69° (ENE) 11:02:57 437.445
Oscar 11 13 Feb 10:55:53 10:59:55 38° 293° (WNW) 11:03:57 145.826/435.025
UKube-1 13 Feb 10:55:55 10:57:59 13° 88° (E) 11:00:03 .
CUSAT 1 13 Feb 10:58:05 11:02:17 19° 51° (NE) 11:05:47 437.405
ANTELSAT 13 Feb 10:58:21 11:01:55 26° 266° (W) 11:05:31 437.575/2403.000
50 SAT 13 Feb 11:00:31 11:03:11 18° 92° (E) 11:05:49 437.505
TIGRISAT 13 Feb 11:03:59 11:07:28 24° 267° (W) 11:10:56 435.000
AISAT 13 Feb 11:04:07 11:07:13 18° 90° (E) 11:10:18 437.250
CUBEBUG 1 13 Feb 11:12:20 11:15:24 18° 90° (E) 11:18:26 437.445
UWE-3 13 Feb 11:13:23 11:16:48 24° 297° (WNW) 11:20:14 435.000/436.395/437.385
DX 1 13 Feb 11:13:59 11:17:26 22° 93° (E) 11:20:51 434.975-435.025
POLYITAN 1 13 Feb 11:14:39 11:18:49 58° 259° (WSW) 11:23:00 437.675
QB50P2 13 Feb 11:15:07 11:19:17 56° 259° (W) 11:23:28 145.880/145.840
CUBEBUG 2 13 Feb 11:21:35 11:24:17 17° 301° (WNW) 11:27:00 437.445
GONETS M04 13 Feb 11:22:58 11:30:04 27° 304° (WNW) 11:37:14
Oscar 19 13 Feb 11:30:43 11:34:32 21° 57° (ENE) 11:38:21 437.125/150
DELFI C3 13 Feb 11:34:48 11:38:10 25° 296° (WNW) 11:41:32 145.870
AO-85 13 Feb 11:39:27 11:44:45 47° 322° (NW) 11:50:03 145.980
ESTCUBE 1 13 Feb 11:40:59 11:45:21 44° 98° (E) 11:49:41 437.505/2401.250
HUMSAT D 13 Feb 11:42:30 11:46:30 45° 290° (WNW) 11:50:32 437.325/437.525
SO-50 13 Feb 11:44:13 11:48:56 45° 38° (NE) 11:53:30 436.795
POPSAT HIP 1 13 Feb 11:44:23 11:48:09 31° 264° (W) 11:51:57 437.405
DUCHIFAT 1 13 Feb 11:46:08 11:49:55 32° 264° (W) 11:53:42 145.980
NANOSAT C BR1 13 Feb 11:46:35 11:50:20 30° 265° (W) 11:54:04 145.865
RS-15 13 Feb 11:49:46 12:00:50 69° 121° (ESE) 12:12:34 29.354- 29.394
Cosmos 2499 13 Feb 11:52:35 12:00:28 34° 298° (WNW) 12:08:21 435.465 / 435.565
QB50P1 13 Feb 11:57:05 12:00:32 24° 267° (W) 12:03:59 145.935-145.965
ZACube-1 13 Feb 11:59:22 12:01:35 14° 303° (WNW) 12:03:48 437.345
DANDE 13 Feb 12:03:36 12:10:15 38° 62° (ENE) 12:15:26 436.750
YUBILEINY 13 Feb 12:05:09 12:11:25 21° 50° (NE) 12:17:37 435.215
FUNcube-1 13 Feb 12:06:36 12:08:28 13° 304° (NW) 12:10:21 145.935
JAS-2 13 Feb 12:14:31 12:21:17 42° 64° (ENE) 12:27:23 435.910
AO-7 13 Feb 12:16:23 12:21:21 18° 32° (NNE) 12:26:18 29.400- 29.500
VELOX 1 13 Feb 12:22:14 12:26:42 89° 284° (WNW) 12:31:06 145.980
AIST 1 13 Feb 12:22:17 12:24:57 16° 298° (WNW) 12:27:38
TISAT 1 13 Feb 12:27:23 12:29:56 16° 89° (E) 12:32:27 437.305
HO-68 13 Feb 12:27:59 12:30:25 12° 327° (NNW) 12:32:52 435.675
UKube-1 13 Feb 12:30:17 12:34:38 82° 288° (WNW) 12:38:58 .
BUGSAT 1 13 Feb 12:31:26 12:34:36 21° 268° (W) 12:37:46 437.445
SPROUT 13 Feb 12:32:42 12:36:46 42° 98° (E) 12:40:49 437.525
Gurwin Techsat 1B 13 Feb 12:33:00 12:37:29 28° 60° (ENE) 12:41:59 435.225
50 SAT 13 Feb 12:33:46 12:37:27 47° 289° (WNW) 12:41:07 437.505
PCSat 13 Feb 12:36:56 12:41:48 32° 324° (NW) 12:46:42 145.827
CUSAT 1 13 Feb 12:39:44 12:45:42 81° 260° (W) 12:50:06 437.405
AISAT 13 Feb 12:39:45 12:44:07 59° 289° (WNW) 12:48:26 437.250
CUBEBUG 1 13 Feb 12:47:47 12:52:06 58° 289° (WNW) 12:56:21 437.445
ITAMSAT 1 13 Feb 12:48:11 12:52:08 22° 57° (ENE) 12:56:07 435.822/435.867
DX 1 13 Feb 12:49:41 12:53:53 47° 292° (WNW) 12:58:02 434.975-435.025
Cosmos 2504 13 Feb 13:03:39 13:06:44 12° 37° (NE) 13:09:45 435.465 / 435.565
Oscar 19 13 Feb 13:08:11 13:13:21 74° 256° (WSW) 13:18:34 437.125/150
ESTCUBE 1 13 Feb 13:18:10 13:22:00 27° 297° (WNW) 13:25:48 437.505/2401.250
AO-85 13 Feb 13:22:21 13:26:33 22° 344° (NNW) 13:30:40 145.980
ITUPSAT 1 13 Feb 13:24:38 13:26:58 13° 86° (E) 13:29:17 437.325
SO-50 13 Feb 13:24:55 13:29:25 39° 240° (WSW) 13:33:47 436.795
BEESAT 13 Feb 13:30:02 13:32:49 15° 88° (E) 13:35:35 436.000
DANDE 13 Feb 13:46:46 13:53:26 47° 270° (W) 13:58:32 436.750
Cosmos 2499 13 Feb 13:55:33 13:57:03 10° 326° (NNW) 13:58:32 435.465 / 435.565
JAS-2 13 Feb 13:59:06 14:06:16 50° 261° (W) 14:12:45 435.910
VELOX 1 13 Feb 14:00:09 14:02:33 14° 305° (NW) 14:04:54 145.980
YUBILEINY 13 Feb 14:01:18 14:10:11 70° 76° (ENE) 14:18:58 435.215
TISAT 1 13 Feb 14:01:53 14:06:03 65° 288° (WNW) 14:10:11 437.305
RS-15 13 Feb 14:02:43 14:13:54 56° 330° (NNW) 14:25:44 29.354- 29.394
AO-7 13 Feb 14:04:21 14:12:14 48° 57° (ENE) 14:20:07 29.400- 29.500
UKube-1 13 Feb 14:08:01 14:10:01 13° 306° (NW) 14:12:01 .
SPROUT 13 Feb 14:09:05 14:12:35 25° 297° (WNW) 14:16:05 437.525
Gurwin Techsat 1B 13 Feb 14:11:58 14:17:10 55° 260° (W) 14:22:25 435.225
Cosmos 2491 13 Feb 14:15:18 14:22:57 36° 83° (E) 14:30:37 435.465 / 435.565
AISAT 13 Feb 14:19:20 14:19:43 10° 309° (NW) 14:20:06 437.250
SWISSCUBE 13 Feb 14:21:42 14:26:21 45° 99° (E) 14:30:57 437.505
PCSat 13 Feb 14:23:40 14:26:55 16° 349° (N) 14:30:11 145.827
CUSAT 1 13 Feb 14:24:23 14:26:27 12° 287° (WNW) 14:28:22 437.405
ITAMSAT 1 13 Feb 14:25:57 14:31:08 71° 256° (WSW) 14:36:23 435.822/435.867
HORYU 2 13 Feb 14:34:41 14:37:36 18° 57° (ENE) 14:40:33 437.375
Oscar 19 13 Feb 14:51:37 14:53:36 12° 276° (W) 14:55:35 437.125/150
Cosmos 2504 13 Feb 14:55:13 15:03:18 40° 65° (ENE) 15:10:51 435.465 / 435.565
M-CUBED/EXP-1 PRIME 13 Feb 14:58:59 15:02:15 41° 64° (ENE) 15:05:24 437.505
ITUPSAT 1 13 Feb 15:00:40 15:05:32 87° 102° (ESE) 15:10:23 437.325
AUBIESAT-1 13 Feb 15:05:01 15:08:16 40° 64° (ENE) 15:11:26 437.475
AO-85 13 Feb 15:05:02 15:08:55 19° 9° (N) 15:12:41 145.980
BEESAT 13 Feb 15:06:25 15:11:15 83° 286° (WNW) 15:16:03 436.000
STARS 13 Feb 15:12:48 15:14:35 12° 87° (E) 15:16:23 437.465
ISS 13 Feb 15:33:26 15:36:22 32° 150° (SSE) 15:39:19 145.825
KKS-1 13 Feb 15:39:15 15:43:23 36° 98° (E) 15:47:28 437.445
TISAT 1 13 Feb 15:40:36 15:40:55 10° 307° (NW) 15:41:15 437.305
O/OREOS (USA 219) 13 Feb 15:56:07 16:00:08 29° 49° (NE) 16:04:09 437.305
AO-7 13 Feb 15:56:51 16:04:59 53° 258° (WSW) 16:13:10 29.400- 29.500
BEESAT 2 13 Feb 15:57:07 15:58:03 11° 110° (ESE) 15:59:00 435.950
YUBILEINY 13 Feb 15:58:48 16:06:21 33° 279° (W) 16:13:53 435.215
SWISSCUBE 13 Feb 15:59:51 16:03:59 29° 298° (WNW) 16:08:06 437.505
MOZHAYETS 4 13 Feb 16:02:54 16:06:59 29° 94° (E) 16:11:04
PCSat 13 Feb 16:09:04 16:12:33 17° 15° (NNE) 16:16:02 145.827
HORYU 2 13 Feb 16:09:18 16:13:42 72° 257° (WSW) 16:18:09 437.375
ITAMSAT 1 13 Feb 16:09:53 16:11:35 11° 276° (W) 16:13:18 435.822/435.867
Cosmos 2491 13 Feb 16:10:44 16:19:21 63° 286° (WNW) 16:28:02 435.465 / 435.565
RS-15 13 Feb 16:18:22 16:29:21 42° 3° (N) 16:40:48 29.354- 29.394
M-CUBED/EXP-1 PRIME 13 Feb 16:34:50 16:37:06 16° 261° (W) 16:39:20 437.505
CUTE-I 13 Feb 16:35:05 16:39:28 27° 59° (ENE) 16:43:54 437.470
ITUPSAT 1 13 Feb 16:39:42 16:42:46 17° 305° (NW) 16:45:49 437.325
AUBIESAT-1 13 Feb 16:40:42 16:43:04 17° 261° (W) 16:45:22 437.475
BEESAT 13 Feb 16:45:38 16:48:21 15° 306° (NW) 16:51:03 436.000
AO-85 13 Feb 16:45:58 16:50:56 36° 33° (NNE) 16:55:34 145.980
STARS 13 Feb 16:47:13 16:51:37 88° 289° (WNW) 16:56:00 437.465
Cosmos 2504 13 Feb 16:48:42 16:57:08 59° 269° (W) 17:04:59 435.465 / 435.565
Cubesat XI-IV 13 Feb 16:49:43 16:54:27 34° 62° (ENE) 16:59:14 437.490
CUBESAT XI-V 13 Feb 16:56:26 16:58:40 13° 86° (E) 17:00:53 437.345
BEESAT 3 13 Feb 16:59:23 17:03:17 57° 125° (SE) 17:07:13 437.485
LilacSat-2 13 Feb 17:05:40 17:08:54 27° 66° (ENE) 17:12:08 437.200
ISS 13 Feb 17:09:22 17:12:37 89° 347° (NNW) 17:15:53 145.825
KKS-1 13 Feb 17:16:00 17:19:53 30° 296° (WNW) 17:23:45 437.445
BRITE-PL 13 Feb 17:28:03 17:33:12 39° 66° (ENE) 17:38:07 437.365/2234.400
BEESAT 2 13 Feb 17:31:13 17:35:13 75° 129° (SE) 17:39:16 435.950
GONETS M04 13 Feb 17:31:13 17:36:46 18° 46° (NE) 17:42:20
DOVE 4 13 Feb 17:34:56 17:37:26 14° 56° (NE) 17:39:51 437.250
O/OREOS (USA 219) 13 Feb 17:35:20 17:39:45 47° 249° (WSW) 17:44:09 437.305
HO-68 13 Feb 17:38:55 17:43:58 21° 45° (NE) 17:49:01 435.675
MOZHAYETS 4 13 Feb 17:39:55 17:44:16 40° 293° (WNW) 17:48:36
PCSat 13 Feb 17:52:25 17:57:30 38° 40° (NE) 18:02:34 145.827
Cosmos 2499 13 Feb 17:52:47 17:55:07 11° 35° (NE) 17:57:26 435.465 / 435.565
AO-7 13 Feb 17:57:21 17:59:51 11° 281° (W) 18:02:23 29.400- 29.500
GOMX 1 13 Feb 18:12:07 18:17:08 47° 69° (ENE) 18:21:53 467.674
Cosmos 2491 13 Feb 18:12:41 18:18:21 18° 312° (NW) 18:24:03 435.465 / 435.565
CUTE-I 13 Feb 18:13:56 18:19:12 59° 259° (WSW) 18:24:31 437.470
AIST 2 13 Feb 18:22:29 18:26:13 32° 120° (ESE) 18:29:58 435.215
STARS 13 Feb 18:25:04 18:27:21 14° 305° (NW) 18:29:39 437.465
AO-85 13 Feb 18:26:37 18:31:48 60° 236° (SW) 18:36:34 145.980
Cubesat XI-IV 13 Feb 18:29:19 18:34:25 45° 261° (W) 18:39:34 437.490
CUBESAT XI-V 13 Feb 18:32:01 18:36:47 89° 119° (ESE) 18:41:28 437.345
RS-15 13 Feb 18:32:41 18:44:36 62° 35° (NE) 18:56:49 29.354- 29.394
SEEDS 13 Feb 18:35:18 18:37:38 15° 57° (ENE) 18:40:00 437.485
CUTE 1.7 + AOD 2 13 Feb 18:35:53 18:38:49 19° 60° (ENE) 18:41:45 437.475
BEESAT 3 13 Feb 18:37:52 18:41:19 27° 326° (NW) 18:44:47 437.485
AAUSAT CUBESAT 2 13 Feb 18:39:32 18:40:24 11° 54° (NE) 18:41:15 437.432
LilacSat-2 13 Feb 18:39:47 18:43:10 30° 264° (W) 18:46:35 437.200
Cosmos 2504 13 Feb 18:44:39 18:48:30 14° 293° (WNW) 18:52:16 435.465 / 435.565
ISS 13 Feb 18:45:53 18:49:09 84° 8° (N) 18:52:24 145.825
BRITE-PL 13 Feb 19:06:21 19:11:39 41° 264° (W) 19:16:44 437.365/2234.400
DOVE 4 13 Feb 19:09:34 19:14:31 81° 74° (ENE) 19:19:11 437.250
BEESAT 2 13 Feb 19:10:15 19:13:33 24° 329° (NNW) 19:16:52 435.950
CUBEBUG 2 13 Feb 19:12:36 19:14:57 15° 58° (ENE) 19:17:18 437.445
STRAND 1 13 Feb 19:18:46 19:23:35 38° 97° (E) 19:28:23 437.568
CANX-2 13 Feb 19:20:18 19:24:22 49° 70° (ENE) 19:28:30 2200.000
HO-68 13 Feb 19:23:27 19:30:35 72° 68° (ENE) 19:37:47 435.675
GONETS M04 13 Feb 19:27:09 19:35:52 60° 73° (ENE) 19:44:35
CINEMA 3 13 Feb 19:32:41 19:37:01 51° 71° (ENE) 19:41:12 145.822/145.860
PCSat 13 Feb 19:35:50 19:41:07 52° 241° (WSW) 19:46:21 145.827
Cosmos 2499 13 Feb 19:43:42 19:51:29 38° 64° (ENE) 19:58:42 435.465 / 435.565
COMPASS 1 13 Feb 19:46:43 19:50:42 47° 70° (ENE) 19:54:45 437.405
ZACube-1 13 Feb 19:47:51 19:50:33 17° 59° (ENE) 19:53:16 437.345
PRISM 13 Feb 19:48:51 19:52:11 23° 93° (E) 19:55:30 437.425
GOMX 1 13 Feb 19:50:50 19:55:23 29° 266° (W) 19:59:45 467.674
FUNcube-1 13 Feb 19:54:22 19:57:16 19° 60° (ENE) 20:00:09 145.935
AIST 2 13 Feb 20:00:39 20:04:39 42° 320° (NW) 20:08:39 435.215
SEEDS 13 Feb 20:08:37 20:12:48 81° 257° (WSW) 20:17:04 437.485
CUTE 1.7 + AOD 2 13 Feb 20:10:05 20:14:15 61° 259° (W) 20:18:29 437.475
AO-85 13 Feb 20:10:12 20:11:10 11° 256° (WSW) 20:12:08 145.980
CUBESAT XI-V 13 Feb 20:10:43 20:13:31 16° 304° (NW) 20:16:18 437.345
AAUSAT CUBESAT 2 13 Feb 20:11:00 20:15:07 69° 73° (ENE) 20:19:18 437.432
BEESAT 3 13 Feb 20:18:39 20:20:20 12° 349° (N) 20:22:02 437.485
Oscar 11 13 Feb 20:19:17 20:23:18 40° 68° (ENE) 20:27:22 145.826/435.025
ISS 13 Feb 20:22:25 20:25:26 36° 209° (SSW) 20:28:28 145.825
UWE-3 13 Feb 20:38:16 20:42:25 65° 73° (ENE) 20:46:33 435.000/436.395/437.385
AIST 1 13 Feb 20:44:26 20:48:21 31° 70° (ENE) 20:52:14
RS-15 13 Feb 20:45:35 20:57:21 61° 242° (WSW) 21:09:20 29.354- 29.394
CUBEBUG 2 13 Feb 20:46:50 20:51:05 79° 257° (WSW) 20:55:17 437.445
DOVE 4 13 Feb 20:49:51 20:52:44 15° 272° (W) 20:55:33 437.250
DELFI C3 13 Feb 20:50:31 20:54:19 44° 69° (ENE) 20:58:09 145.870
BEESAT 2 13 Feb 20:51:16 20:52:49 12° 353° (N) 20:54:23 435.950
CANX-2 13 Feb 20:57:20 21:00:31 20° 269° (W) 21:03:44 2200.000
STRAND 1 13 Feb 20:58:02 21:02:46 37° 296° (WNW) 21:07:29 437.568
HUMSAT D 13 Feb 21:03:34 21:07:04 29° 65° (ENE) 21:10:37 437.325/437.525
CINEMA 3 13 Feb 21:11:04 21:14:27 21° 268° (W) 21:17:45 145.822/145.860
ESTCUBE 1 13 Feb 21:11:38 21:13:36 13° 53° (NE) 21:15:34 437.505/2401.250
HO-68 13 Feb 21:12:55 21:18:56 28° 268° (W) 21:25:02 435.675
ZACube-1 13 Feb 21:22:18 21:26:27 65° 258° (WSW) 21:30:35 437.345
COMPASS 1 13 Feb 21:23:23 21:26:34 21° 269° (W) 21:29:45 437.405
PRISM 13 Feb 21:23:44 21:27:44 43° 292° (WNW) 21:31:41 437.425
GONETS M04 13 Feb 21:24:29 21:32:22 39° 276° (W) 21:40:17
FUNcube-1 13 Feb 21:29:04 21:33:10 57° 259° (W) 21:37:16 145.935
Cosmos 2499 13 Feb 21:36:52 21:45:07 60° 268° (W) 21:52:43 435.465 / 435.565
AIST 2 13 Feb 21:41:39 21:44:10 15° 342° (NNW) 21:46:42 435.215
50 SAT 13 Feb 21:45:43 21:48:24 19° 62° (ENE) 21:51:07 437.505
AAUSAT CUBESAT 2 13 Feb 21:48:47 21:51:07 15° 272° (W) 21:53:28 437.432
VELOX 1 13 Feb 21:49:08 21:52:34 22° 60° (ENE) 21:56:01 145.980
UKube-1 13 Feb 21:54:43 21:58:06 23° 61° (ENE) 22:01:30 .
Oscar 11 13 Feb 21:55:58 21:59:35 26° 267° (W) 22:03:14 145.826/435.025
BEESAT 3 13 Feb 21:57:50 21:59:45 13° 14° (NNE) 22:01:39 437.485
UNISAT 6 13 Feb 21:59:40 22:02:36 17° 90° (E) 22:05:34 437.425
AISAT 13 Feb 22:06:01 22:09:57 31° 64° (ENE) 22:13:53 437.250
CUBEBUG 1 13 Feb 22:12:46 22:16:37 29° 64° (ENE) 22:20:27 437.445
DX 1 13 Feb 22:13:58 22:18:01 37° 66° (ENE) 22:22:03 434.975-435.025
UWE-3 13 Feb 22:16:51 22:19:20 15° 271° (W) 22:21:50 435.000/436.395/437.385
AIST 1 13 Feb 22:22:06 22:25:56 31° 270° (W) 22:29:43
DELFI C3 13 Feb 22:26:25 22:29:27 21° 268° (W) 22:32:32 145.870
BEESAT 2 13 Feb 22:30:07 22:32:21 14° 17° (NNE) 22:34:36 435.950
HUMSAT D 13 Feb 22:38:59 22:42:40 33° 264° (W) 22:46:25 437.325/437.525
ANTELSAT 13 Feb 22:43:47 22:47:57 43° 99° (E) 22:52:12 437.575/2403.000
ESTCUBE 1 13 Feb 22:45:07 22:49:38 73° 73° (ENE) 22:54:12 437.505/2401.250
TIGRISAT 13 Feb 22:49:04 22:53:16 46° 99° (E) 22:57:32 435.000
POLYITAN 1 13 Feb 22:55:35 22:58:15 16° 90° (E) 23:00:54 437.675
QB50P2 13 Feb 22:55:56 22:58:42 17° 90° (E) 23:01:27 145.880/145.840
RS-15 13 Feb 23:00:18 23:07:10 17° 266° (W) 23:14:07 29.354- 29.394
50 SAT 13 Feb 23:18:35 23:22:09 44° 261° (W) 23:25:47 437.505
AIST 2 13 Feb 23:22:30 23:24:20 12° 7° (N) 23:26:10 435.215
TISAT 1 13 Feb 23:23:40 23:27:01 24° 62° (ENE) 23:30:23 437.305
POPSAT HIP 1 13 Feb 23:23:51 23:27:32 29° 95° (E) 23:31:12 437.405
VELOX 1 13 Feb 23:24:22 23:28:45 54° 259° (W) 23:33:09 145.980
DUCHIFAT 1 13 Feb 23:25:03 23:28:41 28° 95° (E) 23:32:17 145.980
NANOSAT C BR1 13 Feb 23:25:39 23:29:21 29° 95° (E) 23:33:02 145.865
UKube-1 13 Feb 23:29:40 23:33:54 50° 260° (W) 23:38:09 .
SPROUT 13 Feb 23:31:00 23:35:14 61° 72° (ENE) 23:39:29 437.525
Cosmos 2499 13 Feb 23:32:33 23:36:16 14° 292° (WNW) 23:39:54 435.465 / 435.565
BEESAT 3 13 Feb 23:35:03 23:38:40 32° 36° (NE) 23:42:15 437.485
UNISAT 6 13 Feb 23:35:26 23:39:44 62° 289° (WNW) 23:44:08 437.425
QB50P1 13 Feb 23:35:54 23:39:51 38° 98° (E) 23:43:46 145.935-145.965
AISAT 13 Feb 23:42:16 23:46:24 36° 263° (W) 23:50:32 437.250
CUBEBUG 1 13 Feb 23:48:41 23:52:49 38° 263° (W) 23:56:58 437.445
DX 1 13 Feb 23:50:27 23:54:17 29° 265° (W) 23:58:07 434.975-435.025
SWISSCUBE 13 Feb 23:57:43 00:00:36 16° 54° (NE) 00:03:30 437.505
CUSAT 1 14 Feb 00:05:57 00:11:37 21° 81° (E) 00:17:01 437.405
BUGSAT 1 14 Feb 00:07:08 00:10:57 39° 98° (E) 00:14:43 437.445
BEESAT 2 14 Feb 00:07:30 00:11:18 39° 40° (NE) 00:15:04 435.950
Cosmos 2491 14 Feb 00:18:07 00:25:08 26° 55° (NE) 00:32:06 435.465 / 435.565
ANTELSAT 14 Feb 00:20:55 00:24:31 26° 297° (WNW) 00:28:10 437.575/2403.000
PHONESAT 2.4 14 Feb 00:23:47 00:24:27 10° 165° (SSE) 00:25:06 2401.200-2431.200
ESTCUBE 1 14 Feb 00:24:12 00:26:59 16° 272° (W) 00:29:47 437.505/2401.250
TIGRISAT 14 Feb 00:26:16 00:29:46 24° 298° (WNW) 00:33:18 435.000
POLYITAN 1 14 Feb 00:30:19 00:34:30 63° 288° (WNW) 00:38:40 437.675
QB50P2 14 Feb 00:30:45 00:34:55 61° 288° (WNW) 00:39:04 145.880/145.840
ITUPSAT 1 14 Feb 00:35:31 00:39:34 28° 61° (ENE) 00:43:38 437.325
BEESAT 14 Feb 00:40:45 00:44:55 31° 63° (ENE) 00:49:07 436.000
TISAT 1 14 Feb 00:58:26 01:02:29 45° 261° (W) 01:06:33 437.305
POPSAT HIP 1 14 Feb 00:59:34 01:03:23 34° 294° (WNW) 01:07:12 437.405
DUCHIFAT 1 14 Feb 01:00:38 01:04:28 35° 293° (WNW) 01:08:17 145.980
AIST 2 14 Feb 01:00:49 01:04:15 24° 30° (NNE) 01:07:39 435.215
NANOSAT C BR1 14 Feb 01:01:21 01:05:08 34° 294° (WNW) 01:08:56 145.865
JAS-2 14 Feb 01:04:40 01:08:16 17° 85° (E) 01:11:43 435.910
SPROUT 14 Feb 01:08:46 01:11:37 17° 270° (W) 01:14:28 437.525
KKS-1 14 Feb 01:09:28 01:10:33 11° 52° (NE) 01:11:38 437.445
QB50P1 14 Feb 01:11:58 01:15:32 27° 296° (WNW) 01:19:04 145.935-145.965
BEESAT 3 14 Feb 01:12:46 01:16:33 44° 237° (WSW) 01:20:18 437.485
Oscar 19 14 Feb 01:14:58 01:19:19 27° 93° (E) 01:23:37 437.125/150
UNISAT 6 14 Feb 01:15:00 01:15:39 10° 307° (NW) 01:16:18 437.425
DANDE 14 Feb 01:15:26 01:22:52 39° 87° (E) 01:30:21 436.750
YUBILEINY 14 Feb 01:16:49 01:21:41 16° 70° (ENE) 01:26:33 435.215
SWISSCUBE 14 Feb 01:32:58 01:37:45 89° 74° (ENE) 01:42:35 437.505
BUGSAT 1 14 Feb 01:42:54 01:46:11 24° 297° (WNW) 01:49:28 437.445
CUSAT 1 14 Feb 01:44:51 01:53:01 79° 99° (E) 02:00:34 437.405
BEESAT 2 14 Feb 01:45:32 01:49:09 33° 240° (WSW) 01:52:45 435.950
PHONESAT 2.4 14 Feb 01:59:07 02:00:52 14° 182° (S) 02:02:35 2401.200-2431.200
ITUPSAT 1 14 Feb 02:12:37 02:17:13 47° 261° (W) 02:21:53 437.325
STARS 14 Feb 02:13:35 02:16:57 22° 60° (ENE) 02:20:19 437.465
Cosmos 2491 14 Feb 02:14:33 02:23:22 87° 80° (E) 02:32:11 435.465 / 435.565
BEESAT 14 Feb 02:18:07 02:22:37 41° 262° (W) 02:27:10 436.000
Gurwin Techsat 1B 14 Feb 02:22:52 02:27:55 41° 97° (E) 02:32:56 435.225
ITAMSAT 1 14 Feb 02:33:55 02:38:27 28° 94° (E) 02:42:57 435.822/435.867
AIST 2 14 Feb 02:39:02 02:43:12 77° 231° (SW) 02:47:19 435.215
KKS-1 14 Feb 02:41:52 02:46:16 63° 71° (ENE) 02:50:41 437.445
JAS-2 14 Feb 02:48:34 02:54:16 79° 288° (WNW) 02:59:31 435.910
Oscar 19 14 Feb 02:53:56 02:58:55 51° 293° (WNW) 03:03:51 437.125/150
DANDE 14 Feb 02:57:14 03:05:31 66° 287° (WNW) 03:13:47 436.750
YUBILEINY 14 Feb 03:08:01 03:16:41 66° 93° (E) 03:25:25 435.215
MOZHAYETS 4 14 Feb 03:09:25 03:13:49 48° 69° (ENE) 03:18:16
SWISSCUBE 14 Feb 03:13:48 03:16:15 14° 273° (W) 03:18:44 437.505
CUSAT 1 14 Feb 03:28:57 03:35:58 31° 299° (WNW) 03:42:28 437.405
Cosmos 2504 14 Feb 03:40:08 03:47:14 29° 79° (ENE) 03:54:24 435.465 / 435.565
SO-50 14 Feb 03:44:02 03:47:50 23° 114° (ESE) 03:51:40 436.795
STARS 14 Feb 03:48:43 03:53:01 53° 259° (W) 03:57:21 437.465
AO-7 14 Feb 03:52:21 04:00:10 41° 98° (E) 04:07:53 29.400- 29.500
HORYU 2 14 Feb 03:56:18 03:58:59 15° 89° (E) 04:01:38 437.375
Gurwin Techsat 1B 14 Feb 04:03:00 04:07:50 36° 297° (WNW) 04:12:39 435.225
CUBESAT XI-V 14 Feb 04:03:58 04:07:42 24° 61° (ENE) 04:11:28 437.345
M-CUBED/EXP-1 PRIME 14 Feb 04:08:52 04:10:29 13° 97° (E) 04:12:07 437.505
Cosmos 2491 14 Feb 04:12:29 04:19:08 25° 283° (WNW) 04:25:48 435.465 / 435.565
ITAMSAT 1 14 Feb 04:13:06 04:18:11 50° 293° (WNW) 04:23:13 435.822/435.867
AUBIESAT-1 14 Feb 04:14:24 04:15:58 12° 97° (E) 04:17:34 437.475
AIST 2 14 Feb 04:19:42 04:20:58 11° 251° (WSW) 04:22:14 435.215
KKS-1 14 Feb 04:20:14 04:23:17 18° 270° (W) 04:26:20 437.445
JAS-2 14 Feb 04:34:59 04:38:24 17° 311° (NW) 04:41:41 435.910
Oscar 19 14 Feb 04:35:56 04:37:08 11° 313° (NW) 04:38:20 437.125/150
DANDE 14 Feb 04:43:59 04:50:05 21° 309° (NW) 04:56:03 436.750
MOZHAYETS 4 14 Feb 04:47:34 04:51:15 24° 268° (W) 04:55:00
STRAND 1 14 Feb 05:02:53 05:06:11 17° 54° (NE) 05:09:29 437.568
YUBILEINY 14 Feb 05:06:09 05:14:08 37° 297° (WNW) 05:22:12 435.215
SO-50 14 Feb 05:22:58 05:27:55 73° 314° (NW) 05:32:54 436.795
Cosmos 2504 14 Feb 05:30:55 05:39:43 82° 281° (W) 05:48:42 435.465 / 435.565
HORYU 2 14 Feb 05:31:36 05:36:04 73° 288° (WNW) 05:40:31 437.375
CUBESAT XI-V 14 Feb 05:40:10 05:44:47 55° 260° (W) 05:49:27 437.345
M-CUBED/EXP-1 PRIME 14 Feb 05:42:05 05:45:27 60° 294° (WNW) 05:49:00 437.505
AO-7 14 Feb 05:45:09 05:53:17 59° 299° (WNW) 06:01:21 29.400- 29.500
AUBIESAT-1 14 Feb 05:47:28 05:50:54 64° 293° (WNW) 05:54:30 437.475
ITAMSAT 1 14 Feb 05:55:11 05:56:30 11° 314° (NW) 05:57:50 435.822/435.867
LilacSat-2 14 Feb 06:08:20 06:11:12 20° 92° (E) 06:14:04 437.200
O/OREOS (USA 219) 14 Feb 06:17:28 06:18:06 10° 96° (E) 06:18:44 437.305
CUTE-I 14 Feb 06:25:47 06:30:48 38° 97° (E) 06:35:48 437.470
STRAND 1 14 Feb 06:39:32 06:44:40 88° 77° (ENE) 06:49:52 437.568
Cubesat XI-IV 14 Feb 06:40:59 06:46:14 50° 100° (E) 06:51:27 437.490
PRISM 14 Feb 06:42:56 06:46:41 33° 65° (ENE) 06:50:28 437.425
GONETS M04 14 Feb 06:44:34 06:48:02 13° 67° (ENE) 06:51:31
DOVE 4 14 Feb 07:05:09 07:07:09 13° 87° (E) 07:09:08 437.250
SO-50 14 Feb 07:05:10 07:09:13 24° 336° (NNW) 07:13:14 436.795
BRITE-PL 14 Feb 07:06:19 07:10:55 49° 98° (E) 07:15:09 437.365/2234.400
HORYU 2 14 Feb 07:10:04 07:11:53 12° 307° (NW) 07:13:42 437.375
YUBILEINY 14 Feb 07:12:19 07:14:27 11° 326° (NW) 07:16:36 435.215
Cosmos 2504 14 Feb 07:27:41 07:34:38 25° 306° (NW) 07:41:40 435.465 / 435.565
AO-7 14 Feb 07:38:51 07:44:29 21° 323° (NW) 07:50:06 29.400- 29.500
LilacSat-2 14 Feb 07:42:09 07:45:44 40° 290° (WNW) 07:49:17 437.200
GOMX 1 14 Feb 07:47:01 07:51:24 61° 100° (E) 07:55:34 467.674
SEEDS 14 Feb 07:49:11 07:51:06 13° 87° (E) 07:53:01 437.485
CUTE 1.7 + AOD 2 14 Feb 07:50:50 07:53:41 17° 89° (E) 07:56:32 437.475
O/OREOS (USA 219) 14 Feb 07:52:09 07:56:38 75° 115° (ESE) 08:01:11 437.305
CUTE-I 14 Feb 08:05:54 08:10:53 39° 296° (WNW) 08:15:52 437.470
ANTELSAT 14 Feb 08:14:39 08:15:46 11° 53° (NE) 08:16:54 437.575/2403.000
PRISM 14 Feb 08:18:19 08:22:02 30° 264° (W) 08:25:47 437.425
TIGRISAT 14 Feb 08:19:26 08:20:52 12° 54° (NE) 08:22:18 435.000
Cubesat XI-IV 14 Feb 08:21:25 08:26:07 31° 299° (WNW) 08:30:48 437.490
STRAND 1 14 Feb 08:21:34 08:24:35 15° 273° (W) 08:27:36 437.568
Cosmos 2499 14 Feb 08:26:51 08:33:49 27° 78° (ENE) 08:40:47 435.465 / 435.565
HO-68 14 Feb 08:33:12 08:40:08 47° 99° (E) 08:47:02 435.675
CUBEBUG 2 14 Feb 08:33:33 08:35:58 15° 89° (E) 08:38:24 437.445
GONETS M04 14 Feb 08:34:23 08:42:46 56° 90° (E) 08:51:14
CANX-2 14 Feb 08:35:55 08:40:07 49° 99° (E) 08:44:18 2200.000
DOVE 4 14 Feb 08:41:15 08:45:30 75° 286° (WNW) 08:49:38 437.250
BRITE-PL 14 Feb 08:45:19 08:49:07 24° 300° (WNW) 08:52:42 437.365/2234.400
AO-85 14 Feb 08:46:33 08:50:08 18° 109° (ESE) 08:53:46 145.980
SO-50 14 Feb 08:48:12 08:51:21 17° 0° (N) 08:54:29 436.795
CINEMA 3 14 Feb 08:59:02 09:03:10 62° 101° (E) 09:07:19 145.822/145.860
COMPASS 1 14 Feb 08:59:59 09:04:04 45° 99° (E) 09:08:08 437.405
UNISAT 6 14 Feb 09:03:18 09:06:56 28° 64° (ENE) 09:10:34 437.425
ZACube-1 14 Feb 09:06:14 09:09:01 17° 90° (E) 09:11:51 437.345
RS-15 14 Feb 09:10:21 09:15:35 15° 91° (E) 09:20:54 29.354- 29.394
FUNcube-1 14 Feb 09:12:30 09:15:30 19° 91° (E) 09:18:32 145.935
AIST 1 14 Feb 09:20:36 09:23:04 15° 83° (E) 09:25:34
SEEDS 14 Feb 09:23:07 09:27:25 83° 285° (WNW) 09:31:41 437.485
AAUSAT CUBESAT 2 14 Feb 09:23:45 09:27:58 65° 102° (ESE) 09:32:08 437.432
CUTE 1.7 + AOD 2 14 Feb 09:25:41 09:29:57 62° 287° (WNW) 09:34:11 437.475
GOMX 1 14 Feb 09:26:01 09:29:05 19° 302° (WNW) 09:32:02 467.674
O/OREOS (USA 219) 14 Feb 09:33:12 09:36:35 20° 316° (NW) 09:40:02 437.305
